Showing default

COSMOS 627, 7008

Orbit data source: Space-Track

COSMOS 627, 7008 is a payload satellite owned by VMF (CIS) in LEO that was launched on Sat, 29 Dec 1973 UTC via a KOSMOS 11K65M launch vehicle from the Plesetsk Missile And Space Complex (PKMTR). Payloads include a variety of satellites, spacecraft, and rockets equipped with specific instruments for various scientific and technological missions. These include communications satellites like Starlink; space stations such as the ISS; scientific satellites like the Hubble; Earth observation satellites from companies like Planet Labs, Umbra, and HawkEye 360; GPS; miniature CubeSats for education and research; and military/defense satellites.

Loading next visibility...
COSMOS 627 details
Identifier
7008, 1973-109A
Orbit
LEO
Last TLE update14 hours ago
Origin
Flag of CISVMF (CIS)
ManufacturerOmsk Av. Zav.
MissionDefense Navigation
Bus & MotorKAUR-1 11F617, Unknown motor
Mass800 kg wet, 800 kg dry
Launch date (UTC)
1973-12-29 (51 years ago)
Launch vehicle
KOSMOS 11K65M
Launch site
Plesetsk Missile And Space Complex (PKMTR)
Object type
Payload
Rocket body
Debris
Shape & HBRCyl, 5 m
Radar Cross Section9.978 m², Large (>1 m²)

Expand to show TLE details & history

TLE from 14 hours ago
0 COSMOS 627
1 07008U 73109A   24360.94092368  .00000121  00000-0  11439-3 0  9996
2 07008  82.9534 158.4759 0032713  35.4937  75.5202 13.73018133554021
Epoch: 2024-12-25T22:34Z
Definitive object data (Epoch: 2024-12-25T22:34:55.805Z)
Latitude67.62306°
Longitude-112.56278°
Altitude994.505 km
Speed7.364 km/s
True Right ascension21h 24m 23s
True Declination67° 30' 20"
Sunlit
Object was in daylight at TLE epoch
Visualization TLE readout
Latitude43.9291°
Longitude91.19909°
Altitude971.588 km
Speed7.382 km/s
Apparent Right ascension07h 01m 50s
Apparent Declination47° 42' 30"
Sunlit
Object is in full shadow
Visualization observer readout
Local Sidereal Time11:36:26
Azimuth303.203° NW
Elevation41.496°
Doppler factor1
Orbital elements
Apogee altitude1,009.996 km
Perigee altitude961.817 km
Semi-major axis7,364.043 km
Eccentricity0.0032713
Inclination82.9534°
RAAN158.4759°
Arg. of periapsis35.4937°
True anomaly75.88353°
Mean anomaly75.5202°
Eccentric anomaly75.70183°
Mean motion3.43454 °/min
BSTAR0.00011439
Orbital period104.82 mins
Loading maneuver chart data...
Loading historical data...
Loading historical data...
Loading historical data...
Loading historical data...
Loading historical data...
Loading historical data...
Loading historical data...
Other satellites on launch #109 in the year 1973 (1973-12-29 UTC)

COSMOS 627 Visibility forecast

Observer location: undefined°, undefined

Span
Click to sort rows by Start time (UTC) header in descending order
Start Az.
Max El. time (UTC)
Max El. Az.
Max El.
End time (UTC)
End Az.
5 mins2024-12-26 12:14:57.108Z302.705° NW2024-12-26 12:14:57.108Z302.705° NW33.538°2024-12-26 12:19:57.108Z353.741° N
8 mins2024-12-26 21:22:57.108Z30.566° NE2024-12-26 21:25:57.108Z64.482° ENE20.877°2024-12-26 21:30:57.108Z119.171° SE
10 mins2024-12-26 23:07:57.108Z338.659° N2024-12-26 23:11:57.108Z284.943° WNW38.549°2024-12-26 23:17:57.108Z194.852° SSW
9 mins2024-12-27 10:53:57.108Z158.091° S2024-12-27 10:57:57.108Z88.634° E38.127°2024-12-27 11:02:57.108Z19.694° NNE
|